Simultaneous Nadir Overpasses (SNOs) Predictions

Prediction of SNOs between GOES-17 and METOP-B Satellite Orbit:

Table of predicted SNOs for the next 14.0 days since TLE Epoch: 10/5/2024
Index Date Time (GOES-17) GOES-17 Lat,Lon METOP-B Lat,Lon Distance(km) Time Diff (sec)
1 10/06/2024 04:13:12 0.01,-104.68 0.13,-104.13 62.57 80
2 10/07/2024 16:31:59 0.02,-104.73 0.92,-108.69 450.95 80
3 10/08/2024 16:13:57 0.02,-104.73 -0.22,-103.70 118.50 80
4 10/10/2024 04:32:54 -0.03,-104.68 -0.80,-108.29 410.98 80
5 10/11/2024 04:09:31 -0.03,-104.67 0.30,-103.29 158.26 80
6 10/12/2024 16:28:19 0.03,-104.72 0.70,-107.85 356.17 80
7 10/13/2024 16:10:15 0.03,-104.72 -0.36,-102.84 213.48 80
8 10/15/2024 04:29:10 -0.03,-104.67 -0.67,-107.43 315.31 80
9 10/16/2024 04:05:48 -0.02,-104.66 0.47,-102.43 254.17 80
10 10/17/2024 16:24:34 0.01,-104.71 0.53,-106.99 260.15 80
11 10/18/2024 16:06:31 0.01,-104.71 -0.56,-101.98 309.81 80
